Hourly Data Report for October 11, 2014

All times are specified in Local Standard Time (LST). Add 1 hour to adjust for Daylight Saving Time where and when it is observed.

BATHURST A
NEW BRUNSWICK

47°37'47.000" N
65°44'20.000" W
58.80 m
8100505
71574
ZBF

Download Data

Hourly Data (October 2014)
Hourly Data Report for October 11, 2014
Temp Definition
°C
Dew Point Temp Definition
°C
Rel Hum Definition
%
Wind Dir Definition
10's deg

Wind Spd Definition
km/h
Visibility Definition
km
Stn Press Definition
kPa
Hmdx Definition


Wind Chill Definition


Weather Definition


TIME
00:00 Legend Double Dagger 9.4 3.8 68 27 16 24.1 100.71     LegendNANA
01:00 Legend Double Dagger 8.9 3.8 70 27 13 24.1 100.75     LegendNANA
02:00 Legend Double Dagger 7.0 3.4 78 27 6 24.1 100.76     Mainly Clear
03:00 Legend Double Dagger 6.9 3.2 77 27 7 24.1 100.82     LegendNANA
04:00 Legend Double Dagger 4.5 2.4 86 21 6 24.1 100.90     LegendNANA
05:00 Legend Double Dagger 3.4 1.9 90 24 5 24.1 100.95     Mainly Clear
06:00 Legend Double Dagger 2.6 1.6 93 23 5 24.1 100.99     LegendNANA
07:00 Legend Double Dagger 2.7 1.4 91 25 8 24.1 101.06     LegendNANA
08:00 Legend Double Dagger 3.7 2.2 90 23 10 24.1 101.12     Mostly Cloudy
09:00 Legend Double Dagger 7.9 4.5 79 25 10 24.1 101.15     LegendNANA
10:00 Legend Double Dagger 10.1 3.4 63 28 13 24.1 101.13     LegendNANA
11:00 Legend Double Dagger 10.1 3.6 64 26 10 24.1 101.10     Mostly Cloudy
12:00 Legend Double Dagger 10.3 3.4 62 27 12 24.1 101.07     LegendNANA
13:00 Legend Double Dagger 11.2 3.8 60 23 4 24.1 100.98     LegendNANA
14:00 Legend Double Dagger 12.6 3.9 55 20 12 24.1 100.92     Mostly Cloudy
15:00 Legend Double Dagger 12.1 3.4 55 29 5 24.1 100.86     LegendNANA
16:00 Legend Double Dagger 11.0 5.4 68 36 1 24.1 100.86     LegendNANA
17:00 Legend Double Dagger 10.8 5.2 68 22 10 24.1 100.85     Mostly Cloudy
18:00 Legend Double Dagger 9.5 5.5 76 23 4 24.1 100.84     LegendNANA
19:00 Legend Double Dagger 6.6 4.9 89 36 1 24.1 100.86     LegendNANA
20:00 Legend Double Dagger 3.6 2.4 92 24 3 24.1 100.87     Clear
21:00 Legend Double Dagger 3.5 1.9 89 25 7 24.1 100.86     LegendNANA
22:00 Legend Double Dagger 2.2 1.5 95 36 2 24.1 100.86     LegendNANA
23:00 Legend Double Dagger 0.0 -0.7 95 23 4 24.1 100.87   -1 Clear

Notes on Data Quality.

Legend

  • E = Estimated
  • M = Missing
  • NA = Not Available
  • ‡ = Partner data that is not subject to review by the National Climate Archives
Date modified: